This demonstration page uses our WeatherBlox Daily Observations layout. Learn more.

Left ArrowRight Arrow

39.08367, -84.50855

Hourly Observations for January 29, 2017

Temp ( °F °C ) Dew Point ( °F °C ) Humidity (%) Winds ( mph kmh ) Pressure ( in mb ) Visibility ( mi km ) Precip ( " mm )
12:48 am 00:48 Cloudy 34 1 27 -3 75 75 SW 7 11 29.85 1011 10 16 0.00 0.00
12:53 am 00:53 Cloudy 34 1.1 27 -2.8 76 76 WSW 5 7 29.85 1011 10 16 0.00 0.00
1:06 am 01:06 Cloudy 34 1.1 27 -2.8 76 76 W 6 9 29.85 1011 10 16 0.00 0.00
1:53 am 01:53 Cloudy 34 1.1 27 -2.8 76 76 WSW 6 9 29.84 1010 10 16 0.00 0.00
2:53 am 02:53 Cloudy 34 1.1 28 -2.2 79 79 SW 6 9 29.83 1010 10 16 0.00 0.00
3:53 am 03:53 Cloudy 34 1.1 26 -3.3 73 73 W 7 11 29.82 1010 10 16 0.00 0.00
4:53 am 04:53 Cloudy 34 1.1 25 -3.9 70 70 W 10 17 29.82 1010 10 16 0.00 0.00
5:53 am 05:53 Cloudy 34 1.1 25 -3.9 70 70 W 7 11 29.82 1010 10 16 0.00 0.00
6:53 am 06:53 Cloudy 34 1.1 25 -3.9 70 70 W 7 11 29.82 1010 10 16 0.00 0.00
7:53 am 07:53 Cloudy 33 0.6 25 -3.9 72 72 W 7 11 29.83 1010 10 16 0.00 0.00
8:53 am 08:53 Cloudy 32 0 25 -3.9 75 75 N 6 9 29.84 1010 8 13 0.00 0.00
9:53 am 09:53 Cloudy with Light Snow 32 0 25 -3.9 75 75 N 6 9 29.85 1011 5 8 0.00 0.03
10:53 am 10:53 Cloudy 32 0 25 -3.9 75 75 N 5 7 29.85 1011 7 11 0.00 0.03
11:53 am 11:53 Cloudy with Light Snow 31 -0.6 27 -2.8 85 85 NW 7 11 29.85 1011 5 8 0.00 0.03
12:18 pm 12:18 Cloudy with Light Snow 30 -1 28 -2 93 93 NW 7 11 29.85 1011 2 3 0.00 0.00
12:26 pm 12:26 Cloudy with Light Snow 30 -1 28 -2 93 93 NW 6 9 29.85 1011 2 2 0.00 0.00
12:53 pm 12:53 Cloudy with Light Snow 31 -0.6 27 -2.8 85 85 NNW 7 11 29.84 1011 2 2 0.01 0.25
1:17 pm 13:17 Cloudy with Light Snow 31 -0.6 27 -2.8 85 85 VRB 5 7 29.85 1011 2 3 0.00 0.03
1:53 pm 13:53 Cloudy with Light Snow 31 -0.6 27 -2.8 85 85 NW 5 7 29.83 1010 4 6 0.00 0.03
2:53 pm 14:53 Cloudy 31 -0.6 24 -4.4 76 76 W 9 15 29.83 1010 10 16 0.00 0.03
3:53 pm 15:53 Cloudy with Light Snow 30 -1.1 23 -5 75 75 W 13 20 29.85 1011 6 10 0.00 0.03
4:38 pm 16:38 Cloudy 30 -1 23 -5 75 75 W 12 19 29.88 1012 8 13 0.00 0.00
4:53 pm 16:53 Cloudy 30 -1.1 23 -5 75 75 W 10 17 29.86 1011 8 13 0.00 0.03
5:53 pm 17:53 Cloudy with Haze 30 -1.1 24 -4.4 79 79 W 7 11 29.88 1012 5 8 0.00 0.03
6:53 pm 18:53 Cloudy 30 -1.1 24 -4.4 79 79 W 9 15 29.90 1012 9 14 0.00 0.03
7:53 pm 19:53 Cloudy 30 -1.1 24 -4.4 79 79 W 14 22 29.91 1013 9 14 0.00 0.03
8:12 pm 20:12 Cloudy 30 -1 23 -5 75 75 W 7 11 29.97 1015 10 16 0.00 0.00
8:53 pm 20:53 Cloudy 29 -1.7 21 -6.1 72 72 W 12 19 29.92 1013 10 16 0.00 0.00
9:53 pm 21:53 Cloudy with Light Snow 29 -1.7 20 -6.7 69 69 W 12 19 29.93 1014 10 16 0.00 0.03
10:53 pm 22:53 Cloudy with Light Snow 28 -2.2 21 -6.1 75 75 WNW 12 19 29.94 1014 3 5 0.00 0.03
11:53 pm 23:53 Cloudy with Light Snow 27 -2.8 21 -6.1 78 78 W 10 17 29.94 1014 9 14 0.00 0.03

Powered by AerisWeather